�������l�o���
Date,Time,MP-1(��Sv/h),MP-2(��Sv/h),MP-3(��Sv/h),MP-4(��Sv/h),MP-5(��Sv/h),MP-6(��Sv/h),MP-7(��Sv/h),MP-8(��Sv/h),����,����(m/s),���J
2022/11/07,00:00,0.586,0.844,0.530,1.068,0.750,0.337,0.597,0.560,��,3.7,��
2022/11/07,00:10,0.587,0.845,0.531,1.067,0.751,0.338,0.597,0.561,�쐼,0.9,��
2022/11/07,00:20,0.587,0.846,0.531,1.066,0.750,0.337,0.597,0.562,���쐼,2.3,��
2022/11/07,00:30,0.588,0.844,0.531,1.067,0.751,0.337,0.597,0.561,��쐼,1.7,��
2022/11/07,00:40,0.585,0.843,0.529,1.066,0.750,0.338,0.596,0.563,��쐼,1.9,��
2022/11/07,00:50,0.589,0.844,0.529,1.067,0.751,0.339,0.596,0.562,���쐼,1.7,��
2022/11/07,01:00,0.587,0.845,0.531,1.068,0.751,0.338,0.597,0.562,���쐼,3.0,��
2022/11/07,01:10,0.586,0.845,0.530,1.065,0.750,0.337,0.596,0.560,�쐼,2.5,��
2022/11/07,01:20,0.587,0.847,0.531,1.064,0.751,0.338,0.597,0.561,��쓌,1.7,��
2022/11/07,01:30,0.588,0.843,0.531,1.064,0.752,0.338,0.596,0.560,��,1.9,��
2022/11/07,01:40,0.586,0.845,0.530,1.066,0.749,0.338,0.597,0.561,��쐼,2.3,��
2022/11/07,01:50,0.586,0.845,0.531,1.066,0.750,0.339,0.596,0.560,��쐼,2.6,��
2022/11/07,02:00,0.586,0.844,0.529,1.065,0.750,0.338,0.597,0.561,�쐼,2.5,��
2022/11/07,02:10,0.588,0.845,0.531,1.067,0.750,0.338,0.597,0.561,�쐼,3.4,��
2022/11/07,02:20,0.587,0.844,0.531,1.068,0.752,0.338,0.597,0.562,�쐼,4.5,��
2022/11/07,02:30,0.587,0.845,0.529,1.067,0.750,0.338,0.596,0.561,���쐼,5.9,��
2022/11/07,02:40,0.588,0.845,0.531,1.067,0.751,0.337,0.596,0.560,���쐼,5.8,��
2022/11/07,02:50,0.588,0.843,0.533,1.067,0.749,0.338,0.596,0.560,���쐼,5.0,��
2022/11/07,03:00,0.587,0.846,0.529,1.066,0.751,0.339,0.596,0.562,���쐼,6.7,��
2022/11/07,03:10,0.589,0.843,0.531,1.066,0.749,0.339,0.595,0.560,���쐼,5.9,��
2022/11/07,03:20,0.587,0.846,0.531,1.066,0.748,0.338,0.598,0.561,���쐼,5.4,��
2022/11/07,03:30,0.588,0.844,0.530,1.067,0.750,0.337,0.597,0.563,���쐼,4.2,��
2022/11/07,03:40,0.586,0.845,0.530,1.070,0.749,0.338,0.598,0.560,��,4.0,��
2022/11/07,03:50,0.587,0.843,0.530,1.068,0.749,0.338,0.596,0.562,��,4.9,��
2022/11/07,04:00,0.587,0.845,0.531,1.068,0.749,0.338,0.597,0.561,���k��,3.7,��
2022/11/07,04:10,0.586,0.846,0.530,1.064,0.751,0.337,0.598,0.562,���k��,3.1,��
2022/11/07,04:20,0.587,0.845,0.531,1.068,0.749,0.339,0.597,0.563,���k��,3.1,��
2022/11/07,04:30,0.586,0.845,0.530,1.066,0.749,0.336,0.596,0.562,�k��,3.9,��
2022/11/07,04:40,0.586,0.846,0.531,1.066,0.751,0.338,0.595,0.561,�k��,3.3,��
2022/11/07,04:50,0.587,0.847,0.530,1.068,0.750,0.337,0.597,0.560,��,3.0,��
2022/11/07,05:00,0.587,0.844,0.530,1.068,0.747,0.339,0.596,0.561,��,2.3,��
2022/11/07,05:10,0.586,0.844,0.529,1.066,0.751,0.339,0.596,0.561,���쐼,1.4,��
2022/11/07,05:20,0.588,0.846,0.531,1.068,0.749,0.339,0.596,0.561,�쐼,1.1,��
2022/11/07,05:30,0.586,0.844,0.529,1.067,0.751,0.338,0.596,0.562,�쐼,0.9,��
2022/11/07,05:40,0.587,0.846,0.532,1.067,0.750,0.338,0.598,0.560,���쐼,2.6,��
2022/11/07,05:50,0.587,0.845,0.530,1.067,0.749,0.338,0.596,0.561,��쐼,0.9,��
2022/11/07,06:00,0.587,0.843,0.531,1.067,0.751,0.337,0.597,0.561,-,CALM,��
2022/11/07,06:10,0.587,0.843,0.529,1.068,0.749,0.338,0.597,0.562,-,CALM,��
2022/11/07,06:20,0.587,0.845,0.531,1.066,0.749,0.337,0.596,0.561,�k��,0.6,��
2022/11/07,06:30,0.588,0.845,0.530,1.068,0.751,0.339,0.595,0.562,�k��,0.9,��
2022/11/07,06:40,0.586,0.844,0.531,1.068,0.751,0.337,0.597,0.560,��,0.9,��
2022/11/07,06:50,0.586,0.844,0.531,1.066,0.751,0.339,0.596,0.561,���k��,1.2,��
2022/11/07,07:00,0.586,0.845,0.531,1.067,0.752,0.337,0.597,0.561,�k��,0.8,��
2022/11/07,07:10,0.587,0.844,0.531,1.068,0.751,0.338,0.597,0.562,-,CALM,��
2022/11/07,07:20,0.588,0.845,0.530,1.067,0.750,0.337,0.596,0.563,��,0.9,��
2022/11/07,07:30,0.587,0.846,0.533,1.066,0.751,0.338,0.597,0.560,���k��,1.5,��
2022/11/07,07:40,0.587,0.845,0.531,1.068,0.752,0.338,0.596,0.561,���k��,1.2,��
2022/11/07,07:50,0.588,0.845,0.531,1.067,0.750,0.336,0.596,0.561,���k��,0.6,��
2022/11/07,08:00,0.586,0.846,0.531,1.071,0.750,0.337,0.598,0.563,-,CALM,��
2022/11/07,08:10,0.588,0.845,0.530,1.068,0.750,0.338,0.598,0.562,-,CALM,��
2022/11/07,08:20,0.586,0.845,0.530,1.067,0.752,0.338,0.598,0.563,-,CALM,��
2022/11/07,08:30,0.588,0.844,0.528,1.067,0.751,0.339,0.598,0.562,�k�k��,1.1,��
2022/11/07,08:40,0.589,0.842,0.529,1.067,0.750,0.340,0.599,0.563,�k��,1.1,��
2022/11/07,08:50,0.589,0.831,0.530,1.067,0.751,0.339,0.596,0.561,�k,0.9,��
2022/11/07,09:00,0.589,0.826,0.530,1.070,0.750,0.340,0.596,0.562,���k��,1.2,��
2022/11/07,09:10,0.588,0.829,0.530,1.067,0.749,0.338,0.596,0.562,���k��,0.9,��
2022/11/07,09:20,0.588,0.829,0.531,1.067,0.750,0.340,0.595,0.563,���쓌,1.4,��
2022/11/07,09:30,0.587,0.826,0.532,1.069,0.753,0.340,0.597,0.562,�쓌,1.5,��
2022/11/07,09:40,0.589,0.826,0.531,1.068,0.751,0.339,0.595,0.562,�쓌,1.1,��
2022/11/07,09:50,0.588,0.824,0.532,1.065,0.752,0.340,0.596,0.563,���k��,0.9,��
2022/11/07,10:00,0.587,0.821,0.532,1.069,0.751,0.339,0.596,0.562,���k��,1.1,��
2022/11/07,10:10,0.588,0.819,0.531,1.068,0.751,0.338,0.596,0.562,���쓌,1.9,��
2022/11/07,10:20,0.587,0.812,0.529,1.068,0.749,0.338,0.597,0.563,���쓌,2.0,��
2022/11/07,10:30,0.586,0.814,0.530,1.069,0.748,0.338,0.595,0.564,���쓌,2.0,��
2022/11/07,10:40,0.589,0.823,0.530,1.067,0.748,0.337,0.596,0.562,�쓌,1.7,��
2022/11/07,10:50,0.590,0.837,0.531,1.070,0.746,0.338,0.595,0.562,�쓌,2.2,��
2022/11/07,11:00,0.587,0.836,0.532,1.068,0.749,0.338,0.597,0.565,�쓌,2.0,��
2022/11/07,11:10,0.590,0.836,0.530,1.070,0.750,0.337,0.596,0.564,��쓌,2.5,��
2022/11/07,11:20,0.589,0.836,0.532,1.068,0.750,0.337,0.597,0.563,��쓌,3.2,��
2022/11/07,11:30,0.590,0.837,0.530,1.071,0.750,0.338,0.596,0.562,��쓌,4.1,��
2022/11/07,11:40,0.589,0.837,0.531,1.067,0.751,0.338,0.596,0.562,��쓌,4.4,��
2022/11/07,11:50,0.589,0.836,0.530,1.066,0.750,0.339,0.597,0.564,��쓌,5.8,��
2022/11/07,12:00,0.589,0.836,0.530,1.070,0.750,0.339,0.596,0.562,��쓌,7.1,��
2022/11/07,12:10,0.588,0.836,0.533,1.068,0.751,0.338,0.596,0.562,��쓌,6.9,��
2022/11/07,12:20,0.588,0.838,0.532,1.068,0.751,0.339,0.598,0.561,��쓌,6.5,��
2022/11/07,12:30,0.590,0.839,0.532,1.068,0.751,0.338,0.597,0.560,��쓌,7.6,��
2022/11/07,12:40,0.591,0.836,0.530,1.070,0.751,0.339,0.598,0.560,��쓌,8.3,��
2022/11/07,12:50,0.590,0.838,0.530,1.067,0.753,0.339,0.596,0.561,��쓌,8.5,��
2022/11/07,13:00,0.589,0.838,0.529,1.070,0.750,0.339,0.596,0.561,��쓌,8.4,��
2022/11/07,13:10,0.589,0.839,0.530,1.069,0.753,0.339,0.597,0.561,��쓌,9.1,��
2022/11/07,13:20,0.587,0.836,0.528,1.070,0.750,0.339,0.597,0.562,��쓌,8.3,��
2022/11/07,13:30,0.588,0.837,0.528,1.068,0.752,0.340,0.597,0.561,��쓌,8.5,��
2022/11/07,13:40,0.590,0.835,0.531,1.069,0.751,0.341,0.596,0.559,��쓌,7.5,��
2022/11/07,13:50,0.590,0.836,0.529,1.071,0.751,0.338,0.597,0.560,��쓌,7.7,��
2022/11/07,14:00,0.590,0.837,0.531,1.069,0.751,0.340,0.597,0.560,��,6.5,��
2022/11/07,14:10,0.591,0.835,0.529,1.069,0.752,0.339,0.596,0.560,��쓌,6.8,��
2022/11/07,14:20,0.591,0.833,0.531,1.069,0.751,0.338,0.596,0.562,��쓌,6.2,��
2022/11/07,14:30,0.592,0.834,0.531,1.069,0.750,0.340,0.598,0.561,��쓌,6.5,��
2022/11/07,14:40,0.590,0.836,0.532,1.068,0.750,0.339,0.598,0.560,��,7.9,��
2022/11/07,14:50,0.590,0.836,0.531,1.070,0.751,0.340,0.597,0.561,��,6.9,��
2022/11/07,15:00,0.589,0.837,0.531,1.070,0.752,0.341,0.598,0.559,��,6.5,��
2022/11/07,15:10,0.591,0.835,0.528,1.069,0.749,0.343,0.598,0.562,��,6.9,��
2022/11/07,15:20,0.588,0.838,0.530,1.069,0.751,0.340,0.597,0.561,��,5.8,��
2022/11/07,15:30,0.590,0.841,0.530,1.068,0.750,0.340,0.597,0.561,��,5.3,��
2022/11/07,15:40,0.588,0.839,0.531,1.066,0.750,0.339,0.598,0.562,��,6.0,��
2022/11/07,15:50,0.590,0.840,0.530,1.071,0.749,0.341,0.598,0.563,��,6.9,��
2022/11/07,16:00,0.593,0.840,0.531,1.068,0.751,0.339,0.597,0.562,��,6.6,��
2022/11/07,16:10,0.599,0.836,0.528,1.069,0.750,0.341,0.597,0.564,��,6.5,��
2022/11/07,16:20,0.595,0.842,0.530,1.070,0.751,0.341,0.598,0.563,��,6.9,��
2022/11/07,16:30,0.595,0.842,0.530,1.068,0.748,0.341,0.598,0.563,��,7.9,��
2022/11/07,16:40,0.593,0.842,0.529,1.069,0.751,0.340,0.599,0.564,��,7.4,��
2022/11/07,16:50,0.593,0.842,0.533,1.069,0.752,0.340,0.599,0.562,��,7.2,��
2022/11/07,17:00,0.598,0.842,0.533,1.067,0.752,0.339,0.598,0.564,��,6.8,��
2022/11/07,17:10,0.596,0.842,0.534,1.069,0.754,0.340,0.599,0.563,��쐼,6.4,��
2022/11/07,17:20,0.598,0.843,0.534,1.068,0.753,0.338,0.598,0.562,��쐼,6.2,��
2022/11/07,17:30,0.598,0.839,0.533,1.070,0.754,0.339,0.599,0.562,��쐼,6.1,��
2022/11/07,17:40,0.598,0.842,0.533,1.067,0.751,0.340,0.597,0.561,��쐼,6.2,��
2022/11/07,17:50,0.596,0.839,0.533,1.068,0.753,0.339,0.597,0.563,��쐼,5.8,��
2022/11/07,18:00,0.597,0.840,0.532,1.071,0.752,0.341,0.597,0.562,��,5.9,��
2022/11/07,18:10,0.597,0.841,0.531,1.069,0.752,0.338,0.597,0.562,��쐼,5.3,��
2022/11/07,18:20,0.596,0.841,0.532,1.071,0.753,0.338,0.599,0.561,��쐼,5.0,��
2022/11/07,18:30,0.598,0.839,0.532,1.069,0.753,0.339,0.598,0.562,�쐼,4.8,��
2022/11/07,18:40,0.595,0.842,0.532,1.068,0.752,0.339,0.597,0.562,��쐼,4.3,��
2022/11/07,18:50,0.596,0.841,0.531,1.069,0.753,0.339,0.597,0.562,��쐼,3.9,��
2022/11/07,19:00,0.597,0.842,0.530,1.068,0.751,0.340,0.597,0.562,��쐼,4.0,��
2022/11/07,19:10,0.597,0.841,0.532,1.066,0.752,0.339,0.596,0.562,�쐼,3.6,��
2022/11/07,19:20,0.597,0.840,0.532,1.068,0.750,0.339,0.596,0.563,�쐼,3.7,��
2022/11/07,19:30,0.596,0.841,0.532,1.067,0.752,0.340,0.596,0.561,�쐼,3.9,��
2022/11/07,19:40,0.597,0.841,0.532,1.068,0.753,0.340,0.597,0.562,��쐼,3.9,��
2022/11/07,19:50,0.597,0.840,0.532,1.070,0.752,0.339,0.597,0.563,��쐼,4.5,��
2022/11/07,20:00,0.596,0.840,0.532,1.068,0.752,0.339,0.599,0.560,��쐼,4.9,��
2022/11/07,20:10,0.599,0.841,0.531,1.067,0.752,0.339,0.597,0.563,��쐼,4.1,��
2022/11/07,20:20,0.597,0.841,0.531,1.068,0.752,0.338,0.597,0.560,��쐼,4.3,��
2022/11/07,20:30,0.594,0.840,0.532,1.067,0.752,0.339,0.598,0.562,��쐼,4.1,��
2022/11/07,20:40,0.595,0.838,0.530,1.070,0.755,0.338,0.598,0.563,��쐼,3.5,��
2022/11/07,20:50,0.594,0.841,0.532,1.069,0.751,0.340,0.596,0.560,��쐼,3.5,��
2022/11/07,21:00,0.596,0.840,0.533,1.067,0.753,0.340,0.596,0.563,�쐼,3.4,��
2022/11/07,21:10,0.596,0.841,0.532,1.069,0.751,0.338,0.597,0.562,�쐼,3.4,��
2022/11/07,21:20,0.596,0.840,0.534,1.068,0.751,0.339,0.596,0.562,�쐼,4.0,��
2022/11/07,21:30,0.595,0.840,0.531,1.067,0.752,0.339,0.597,0.563,�쐼,3.8,��
2022/11/07,21:40,0.597,0.838,0.532,1.069,0.752,0.340,0.597,0.561,�쐼,3.7,��
2022/11/07,21:50,0.596,0.838,0.530,1.070,0.752,0.338,0.597,0.562,��쐼,3.2,��
2022/11/07,22:00,0.596,0.839,0.531,1.069,0.751,0.342,0.597,0.561,��,2.0,��
2022/11/07,22:10,0.596,0.839,0.532,1.069,0.752,0.339,0.598,0.561,�쓌,1.5,��
2022/11/07,22:20,0.596,0.840,0.531,1.067,0.752,0.339,0.597,0.562,��쓌,1.5,��
2022/11/07,22:30,0.595,0.840,0.532,1.070,0.751,0.339,0.599,0.562,��쓌,2.0,��
2022/11/07,22:40,0.596,0.840,0.532,1.067,0.752,0.339,0.599,0.562,��쓌,2.0,��
2022/11/07,22:50,0.595,0.839,0.532,1.069,0.751,0.339,0.597,0.561,��쓌,2.3,��
2022/11/07,23:00,0.597,0.839,0.532,1.071,0.751,0.340,0.598,0.562,��쐼,2.2,��
2022/11/07,23:10,0.595,0.841,0.530,1.068,0.751,0.338,0.596,0.562,��쐼,1.2,��
2022/11/07,23:20,0.594,0.841,0.531,1.068,0.753,0.338,0.597,0.562,��,1.5,��
2022/11/07,23:30,0.595,0.839,0.532,1.070,0.754,0.339,0.597,0.562,�쐼,2.5,��
2022/11/07,23:40,0.595,0.840,0.531,1.068,0.751,0.339,0.596,0.562,��,2.3,��
2022/11/07,23:50,0.597,0.839,0.533,1.070,0.753,0.340,0.599,0.563,���k��,3.0,��
